Time,TemperatureF,DewpointF,PressureIn,WindDirection,WindDirectionDegrees,WindSpeedMPH,WindSpeedGustMPH,Humidity,HourlyPrecipIn,Conditions,Clouds,dailyrainin,SolarRadiationWatts/m^2,SoftwareType,DateUTC
2013-06-27 00:01:00,73.0,71.0,-100.00,SW,227,1.0,3.0,94,0.00,,,0.00,0.000000,,2013-06-27 04:01:00,
2013-06-27 00:33:00,73.0,71.0,-100.00,NW,326,1.0,2.0,93,0.00,,,0.00,0.000000,,2013-06-27 04:33:00,
2013-06-27 00:42:00,73.0,71.0,-100.00,NW,326,1.0,2.0,93,0.00,,,0.00,0.000000,,2013-06-27 04:42:00,
2013-06-27 00:53:00,73.0,71.0,-100.00,NW,326,1.0,2.0,93,0.00,,,0.00,0.000000,,2013-06-27 04:53:00,
2013-06-27 01:02:00,73.0,71.0,-100.00,NW,326,1.0,2.0,93,0.00,,,0.00,0.000000,,2013-06-27 05:02:00,
2013-06-27 01:32:00,73.0,72.0,-100.00,NNW,333,1.0,9.0,98,0.11,,,0.11,0.000000,,2013-06-27 05:32:00,
2013-06-27 01:42:00,73.0,72.0,-100.00,NNW,333,1.0,9.0,98,0.11,,,0.11,0.000000,,2013-06-27 05:42:00,
2013-06-27 01:53:00,73.0,72.0,-100.00,NNW,333,1.0,9.0,98,0.11,,,0.11,0.000000,,2013-06-27 05:53:00,
2013-06-27 02:01:00,73.0,72.0,-100.00,NNW,333,1.0,9.0,98,0.11,,,0.11,0.000000,,2013-06-27 06:01:00,
2013-06-27 02:43:00,73.0,73.0,-100.00,SW,222,1.0,3.0,99,0.01,,,0.12,0.000000,,2013-06-27 06:43:00,
2013-06-27 02:53:00,73.0,73.0,-100.00,SW,222,1.0,3.0,99,0.01,,,0.12,0.000000,,2013-06-27 06:53:00,
2013-06-27 03:02:00,73.0,73.0,-100.00,SW,222,1.0,3.0,99,0.01,,,0.12,0.000000,,2013-06-27 07:02:00,
2013-06-27 03:34:00,67.0,66.0,-100.00,SW,227,2.0,26.0,95,0.08,,,0.20,0.000000,,2013-06-27 07:34:00,
2013-06-27 03:43:00,67.0,66.0,-100.00,SW,227,2.0,26.0,95,0.08,,,0.20,0.000000,,2013-06-27 07:43:00,
2013-06-27 03:52:00,67.0,66.0,-100.00,SW,227,2.0,26.0,95,0.08,,,0.20,0.000000,,2013-06-27 07:52:00,
2013-06-27 04:01:00,67.0,66.0,-100.00,SW,227,2.0,26.0,95,0.08,,,0.20,0.000000,,2013-06-27 08:01:00,
2013-06-27 04:34:00,67.0,66.0,-100.00,SSW,204,2.0,7.0,97,0.11,,,0.31,0.000000,,2013-06-27 08:34:00,
2013-06-27 04:44:00,67.0,66.0,-100.00,SSW,204,2.0,7.0,97,0.11,,,0.31,0.000000,,2013-06-27 08:44:00,
2013-06-27 04:52:00,67.0,66.0,-100.00,SSW,204,2.0,7.0,97,0.11,,,0.31,0.000000,,2013-06-27 08:52:00,
2013-06-27 05:02:00,67.0,66.0,-100.00,SSW,204,2.0,7.0,97,0.11,,,0.31,0.000000,,2013-06-27 09:02:00,
2013-06-27 05:43:00,67.0,66.0,-100.00,WSW,255,1.0,5.0,98,0.03,,,0.34,0.000000,,2013-06-27 09:43:00,
2013-06-27 05:53:00,67.0,66.0,-100.00,WSW,255,1.0,5.0,98,0.03,,,0.34,0.000000,,2013-06-27 09:53:00,
2013-06-27 06:01:00,67.0,66.0,-100.00,WSW,255,1.0,5.0,98,0.03,,,0.34,0.000000,,2013-06-27 10:01:00,
2013-06-27 06:32:00,66.0,66.0,-100.00,South,182,0.0,6.0,99,0.01,,,0.35,0.000000,,2013-06-27 10:32:00,
2013-06-27 06:44:00,66.0,66.0,-100.00,South,182,0.0,6.0,99,0.01,,,0.35,0.000000,,2013-06-27 10:44:00,
2013-06-27 06:54:00,66.0,66.0,-100.00,South,182,0.0,6.0,99,0.01,,,0.35,0.000000,,2013-06-27 10:54:00,
2013-06-27 07:02:00,66.0,66.0,-100.00,South,182,0.0,6.0,99,0.01,,,0.35,0.000000,,2013-06-27 11:02:00,
2013-06-27 07:43:00,67.0,66.0,-100.00,West,269,2.0,4.0,97,0.00,,,0.35,5.000000,,2013-06-27 11:43:00,
2013-06-27 07:52:00,67.0,66.0,-100.00,West,269,2.0,4.0,97,0.00,,,0.35,5.000000,,2013-06-27 11:52:00,
2013-06-27 08:02:00,67.0,66.0,-100.00,West,269,2.0,4.0,97,0.00,,,0.35,5.000000,,2013-06-27 12:02:00,
2013-06-27 08:34:00,68.0,67.0,-100.00,WNW,282,0.0,3.0,97,0.00,,,0.35,23.000000,,2013-06-27 12:34:00,
2013-06-27 08:42:00,68.0,67.0,-100.00,WNW,282,0.0,3.0,97,0.00,,,0.35,23.000000,,2013-06-27 12:42:00,
2013-06-27 09:01:00,68.0,67.0,-100.00,WNW,282,0.0,3.0,97,0.00,,,0.35,23.000000,,2013-06-27 13:01:00,
2013-06-27 09:43:00,70.0,69.0,-100.00,NE,52,1.0,2.0,96,0.00,,,0.35,39.000000,,2013-06-27 13:43:00,
2013-06-27 09:52:00,70.0,69.0,-100.00,NE,52,1.0,2.0,96,0.00,,,0.35,39.000000,,2013-06-27 13:52:00,
2013-06-27 10:02:00,70.0,69.0,-100.00,NE,52,1.0,2.0,96,0.00,,,0.35,39.000000,,2013-06-27 14:02:00,
2013-06-27 10:43:00,72.0,69.0,-100.00,ENE,76,1.0,3.0,91,0.00,,,0.35,87.000000,,2013-06-27 14:43:00,
2013-06-27 10:52:00,72.0,69.0,-100.00,ENE,76,1.0,3.0,91,0.00,,,0.35,87.000000,,2013-06-27 14:52:00,
2013-06-27 11:01:00,72.0,69.0,-100.00,ENE,76,1.0,3.0,91,0.00,,,0.35,87.000000,,2013-06-27 15:01:00,
2013-06-27 11:42:00,74.0,71.0,-100.00,NW,310,3.0,8.0,90,0.00,,,0.35,104.000000,,2013-06-27 15:42:00,
2013-06-27 11:52:00,74.0,71.0,-100.00,NW,310,3.0,8.0,90,0.00,,,0.35,104.000000,,2013-06-27 15:52:00,
2013-06-27 12:02:00,74.0,71.0,-100.00,NW,310,3.0,8.0,90,0.00,,,0.35,104.000000,,2013-06-27 16:02:00,
2013-06-27 12:34:00,76.0,72.0,-100.00,West,275,2.0,8.0,86,0.00,,,0.35,167.000000,,2013-06-27 16:34:00,
2013-06-27 12:43:00,76.0,72.0,-100.00,West,275,2.0,8.0,86,0.00,,,0.35,167.000000,,2013-06-27 16:43:00,
2013-06-27 12:53:00,76.0,72.0,-100.00,West,275,2.0,8.0,86,0.00,,,0.35,167.000000,,2013-06-27 16:53:00,
2013-06-27 13:02:00,76.0,72.0,-100.00,West,275,2.0,8.0,86,0.00,,,0.35,167.000000,,2013-06-27 17:02:00,
2013-06-27 13:43:00,78.0,73.0,-100.00,West,275,3.0,7.0,85,0.00,,,0.35,184.000000,,2013-06-27 17:43:00,
2013-06-27 13:53:00,78.0,73.0,-100.00,West,275,3.0,7.0,85,0.00,,,0.35,184.000000,,2013-06-27 17:53:00,
2013-06-27 14:01:00,78.0,73.0,-100.00,West,275,3.0,7.0,85,0.00,,,0.35,184.000000,,2013-06-27 18:01:00,
2013-06-27 14:32:00,79.0,75.0,-100.00,NE,38,2.0,7.0,89,0.01,,,0.36,297.000000,,2013-06-27 18:32:00,
2013-06-27 14:44:00,79.0,75.0,-100.00,NE,38,2.0,7.0,89,0.01,,,0.36,297.000000,,2013-06-27 18:44:00,
2013-06-27 14:52:00,79.0,75.0,-100.00,NE,38,2.0,7.0,89,0.01,,,0.36,297.000000,,2013-06-27 18:52:00,
2013-06-27 15:01:00,79.0,75.0,-100.00,NE,38,2.0,7.0,89,0.01,,,0.36,297.000000,,2013-06-27 19:01:00,
2013-06-27 15:34:00,82.0,76.0,-100.00,WSW,238,1.0,6.0,82,0.02,,,0.38,393.000000,,2013-06-27 19:34:00,
2013-06-27 15:42:00,82.0,76.0,-100.00,WSW,238,1.0,6.0,82,0.02,,,0.38,393.000000,,2013-06-27 19:42:00,
2013-06-27 15:53:00,82.0,76.0,-100.00,WSW,238,1.0,6.0,82,0.02,,,0.38,393.000000,,2013-06-27 19:53:00,
2013-06-27 16:02:00,82.0,76.0,-100.00,WSW,238,1.0,6.0,82,0.02,,,0.38,393.000000,,2013-06-27 20:02:00,
2013-06-27 16:05:00,86.0,74.0,-100.00,NW,305,3.0,8.0,67,0.00,,,0.38,724.000000,,2013-06-27 20:05:00,
2013-06-27 16:49:00,86.0,74.0,-100.00,NW,305,3.0,8.0,67,0.00,,,0.38,724.000000,,2013-06-27 20:49:00,
2013-06-27 16:56:00,86.0,74.0,-100.00,NW,305,3.0,8.0,67,0.00,,,0.38,724.000000,,2013-06-27 20:56:00,
2013-06-27 17:05:00,87.0,73.0,-100.00,West,265,3.0,8.0,63,0.00,,,0.38,552.000000,,2013-06-27 21:05:00,
2013-06-27 17:49:00,87.0,73.0,-100.00,West,265,3.0,8.0,63,0.00,,,0.38,552.000000,,2013-06-27 21:49:00,
2013-06-27 17:56:00,87.0,73.0,-100.00,West,265,3.0,8.0,63,0.00,,,0.38,552.000000,,2013-06-27 21:56:00,
2013-06-27 18:05:00,85.0,74.0,-100.00,WSW,256,2.0,8.0,70,0.00,,,0.38,318.000000,,2013-06-27 22:05:00,
2013-06-27 18:36:00,85.0,74.0,-100.00,WSW,256,2.0,8.0,70,0.00,,,0.38,318.000000,,2013-06-27 22:36:00,
2013-06-27 18:58:00,85.0,74.0,-100.00,WSW,256,2.0,8.0,70,0.00,,,0.38,318.000000,,2013-06-27 22:58:00,
2013-06-27 19:05:00,80.0,73.0,-100.00,WNW,300,0.0,7.0,79,0.00,,,0.38,127.000000,,2013-06-27 23:05:00,
2013-06-27 19:36:00,80.0,73.0,-100.00,WNW,300,0.0,7.0,79,0.00,,,0.38,127.000000,,2013-06-27 23:36:00,
2013-06-27 19:48:00,80.0,73.0,-100.00,WNW,300,0.0,7.0,79,0.00,,,0.38,127.000000,,2013-06-27 23:48:00,
2013-06-27 19:59:00,80.0,73.0,-100.00,WNW,300,0.0,7.0,79,0.00,,,0.38,127.000000,,2013-06-27 23:59:00,
2013-06-27 20:05:00,78.0,73.0,-100.00,West,268,0.0,2.0,85,0.00,,,0.38,51.000000,,2013-06-28 00:05:00,
2013-06-27 20:38:00,78.0,73.0,-100.00,West,268,0.0,2.0,85,0.00,,,0.38,51.000000,,2013-06-28 00:38:00,
2013-06-27 20:46:00,78.0,73.0,-100.00,West,268,0.0,2.0,85,0.00,,,0.38,51.000000,,2013-06-28 00:46:00,
2013-06-27 20:56:00,78.0,73.0,-100.00,West,268,0.0,2.0,85,0.00,,,0.38,51.000000,,2013-06-28 00:56:00,
2013-06-27 21:37:00,77.0,74.0,-100.00,South,177,1.0,3.0,89,0.00,,,0.38,17.000000,,2013-06-28 01:37:00,
2013-06-27 21:49:00,77.0,74.0,-100.00,South,177,1.0,3.0,89,0.00,,,0.38,17.000000,,2013-06-28 01:49:00,
2013-06-27 21:58:00,77.0,74.0,-100.00,South,177,1.0,3.0,89,0.00,,,0.38,17.000000,,2013-06-28 01:58:00,
2013-06-27 22:05:00,76.0,72.0,-100.00,SSW,210,1.0,3.0,88,0.00,,,0.38,0.000000,,2013-06-28 02:05:00,
2013-06-27 22:38:00,76.0,72.0,-100.00,SSW,210,1.0,3.0,88,0.00,,,0.38,0.000000,,2013-06-28 02:38:00,
2013-06-27 22:50:00,76.0,72.0,-100.00,SSW,210,1.0,3.0,88,0.00,,,0.38,0.000000,,2013-06-28 02:50:00,
2013-06-27 22:58:00,76.0,72.0,-100.00,SSW,210,1.0,3.0,88,0.00,,,0.38,0.000000,,2013-06-28 02:58:00,
2013-06-27 23:39:00,73.0,71.0,-100.00,SSW,204,0.0,4.0,93,0.00,,,0.38,0.000000,,2013-06-28 03:39:00,
2013-06-27 23:46:00,73.0,71.0,-100.00,SSW,204,0.0,4.0,93,0.00,,,0.38,0.000000,,2013-06-28 03:46:00,
2013-06-27 23:56:00,73.0,71.0,-100.00,SSW,204,0.0,4.0,93,0.00,,,0.38,0.000000,,2013-06-28 03:56:00,